GFSWCAN_925_temp_261.txt.gz
Temp
9 10 11 11 10 10 8 6 6 7 5 4 5 6 6 6 7 7 1 3 3 -3 -3 -3 -2 -3 -3 -4 -4 -4 -4 -4 -6 -5 -5 -7 -8 -8 -9 -7 -8 -8 -9 -8 -8 -8 -8 -8 -7 -7 -10 -9 -9 -9
10 10 11 12 10 9 7 5 6 5 4 4 4 5 5 6 6 6 1 1 2 -2 -3 -2 -2 -2 -1 -2 -4 -6 -5 -6 -7 -8 -12 -11 -7 -12 -10 -8 -7 -9 -9 -10 -9 -6 -7 -7 -8 -9 -9 -11 -10 -10
9 9 10 11 10 8 6 5 5 4 3 3 4 4 4 5 5 5 1 1 1 -2 -3 -2 -3 -2 -1 -1 -1 -5 -5 -7 -6 -9 -11 -11 -8 -8 -9 -9 -11 -9 -11 -11 -9 -7 -8 -9 -8 -8 -9 -9 -9 -10
9 9 9 9 10 7 5 4 4 2 1 2 3 4 4 5 4 4 2 1 1 -2 -5 -3 -2 -2 -2 -2 -2 -2 -3 -5 -6 -8 -13 -13 -8 -7 -8 -10 -10 -11 -11 -12 -10 -9 -10 -9 -9 -10 -10 -10 -10 -11
8 9 9 9 9 7 5 4 3 1 1 1 2 2 4 3 3 3 2 1 2 1 -5 -4 -3 -3 -3 -2 -2 -2 -3 -5 -6 -9 -11 -9 -6 -8 -10 -10 -13 -14 -13 -13 -10 -10 -12 -11 -11 -10 -11 -11 -11 -12
8 9 9 9 8 6 5 3 2 1 1 0 1 1 2 2 3 4 -0 1 1 1 -5 -6 -4 -4 -4 -3 -3 -3 -4 -5 -7 -8 -9 -8 -7 -10 -13 -11 -12 -15 -15 -16 -13 -14 -11 -11 -11 -10 -11 -12 -12 -12
8 8 9 8 7 5 4 2 1 1 0 -0 -0 -1 1 2 3 -0 -1 0 1 1 -6 -8 -8 -5 -5 -4 -5 -5 -4 -6 -5 -7 -7 -8 -8 -13 -14 -12 -9 -10 -11 -11 -12 -13 -13 -10 -11 -11 -12 -12 -13 -13
8 8 8 8 6 4 3 1 1 0 -0 -1 -1 0 1 2 1 -0 -1 0 1 -0 -5 -8 -9 -6 -6 -6 -6 -6 -6 -5 -4 -5 -7 -9 -9 -10 -12 -9 -10 -10 -12 -11 -11 -11 -12 -11 -11 -12 -12 -13 -14 -14
7 7 8 6 5 4 2 1 -0 -0 -1 -1 -1 2 2 2 -1 -1 -1 0 1 -1 -9 -12 -8 -7 -8 -8 -8 -7 -8 -7 -6 -8 -6 -7 -9 -10 -10 -13 -13 -14 -15 -15 -13 -12 -12 -12 -12 -12 -13 -14 -14 -14
7 7 7 5 4 2 1 -0 -1 -1 -1 -1 2 1 -4 -4 -2 -1 -1 -4 -7 -9 -11 -11 -11 -9 -9 -9 -11 -12 -14 -12 -12 -10 -10 -8 -10 -11 -12 -13 -15 -16 -15 -14 -16 -14 -15 -13 -13 -14 -14 -14 -14 -14
7 7 6 4 3 1 0 -1 -1 -2 -0 1 -3 -5 -5 -3 -2 -5 -7 -6 -9 -7 -12 -14 -13 -10 -9 -10 -11 -13 -14 -14 -13 -10 -11 -12 -11 -10 -10 -12 -11 -11 -12 -13 -14 -14 -14 -14 -15 -14 -14 -14 -14 -14
7 6 4 3 2 0 -0 -1 -2 -1 0 1 -1 -2 -2 -5 -6 -4 -9 -9 -8 -8 -13 -11 -10 -10 -11 -11 -13 -16 -15 -14 -10 -11 -12 -11 -9 -8 -10 -12 -12 -11 -12 -13 -13 -13 -13 -14 -14 -14 -13 -14 -14 -14
6 4 3 2 0 -0 -1 -2 -0 -1 0 1 -1 -4 -4 -6 -3 -2 -4 -8 -9 -10 -11 -11 -11 -12 -12 -14 -18 -16 -13 -13 -12 -15 -11 -10 -9 -9 -14 -14 -13 -12 -12 -13 -13 -13 -13 -13 -13 -14 -14 -14 -14 -14
4 3 1 0 -0 -1 -2 -2 0 0 1 -4 -3 -4 -4 -4 -5 -5 -5 -6 -9 -10 -11 -12 -12 -12 -14 -14 -18 -12 -13 -15 -15 -13 -11 -13 -13 -13 -15 -13 -13 -14 -13 -13 -13 -13 -14 -14 -14 -13 -13 -14 -14 -14
3 1 0 -0 -1 -2 -2 -3 -1 1 -2 -5 -4 -4 -6 -9 -10 -10 -10 -10 -12 -12 -12 -13 -14 -13 -16 -15 -16 -16 -14 -14 -10 -9 -10 -13 -15 -17 -16 -15 -13 -13 -12 -13 -13 -13 -13 -14 -14 -13 -13 -13 -13 -13
1 0 -1 -0 -1 -2 -3 -1 0 -1 -7 -7 -8 -8 -8 -7 -10 -10 -11 -11 -13 -14 -14 -14 -17 -15 -16 -17 -13 -14 -14 -12 -10 -13 -13 -17 -16 -17 -16 -12 -11 -12 -12 -12 -12 -13 -13 -13 -13 -13 -13 -13 -13 -13
1 0 -0 -1 -2 -3 -0 1 -2 -8 -7 -7 -8 -7 -8 -7 -8 -10 -10 -12 -14 -13 -12 -16 -12 -12 -17 -16 -13 -13 -13 -11 -13 -14 -16 -17 -16 -15 -10 -11 -11 -11 -12 -12 -12 -12 -12 -13 -13 -13 -13 -13 -13 -13
0 -1 -1 -3 -1 1 -0 -3 -7 -8 -8 -9 -7 -9 -10 -10 -10 -11 -14 -15 -13 -14 -15 -13 -17 -16 -14 -13 -12 -12 -13 -15 -16 -15 -16 -12 -10 -10 -10 -10 -10 -11 -11 -11 -12 -12 -12 -13 -13 -13 -13 -13 -13 -13
-1 -1 -2 -0 2 2 -6 -8 -7 -9 -10 -9 -10 -10 -10 -11 -13 -13 -14 -14 -14 -14 -16 -19 -15 -15 -12 -13 -12 -15 -17 -16 -14 -16 -13 -10 -10 -10 -10 -10 -11 -11 -11 -11 -12 -12 -12 -12 -13 -13 -13 -13 -13 -13
-2 -2 -1 -0 1 -3 -7 -9 -8 -8 -8 -9 -10 -11 -11 -12 -12 -13 -13 -12 -13 -17 -16 -16 -13 -13 -13 -14 -15 -14 -13 -11 -16 -14 -15 -11 -9 -10 -10 -10 -10 -11 -11 -11 -12 -12 -12 -12 -12 -13 -13 -13 -13 -14
-3 -4 0 2 -3 -7 -11 -10 -10 -10 -10 -10 -11 -11 -13 -14 -14 -17 -16 -13 -17 -18 -16 -16 -16 -17 -12 -11 -9 -8 -8 -9 -13 -12 -12 -13 -9 -10 -9 -10 -10 -11 -12 -12 -12 -12 -12 -12 -13 -13 -13 -14 -14 -14
-2 1 1 -2 -7 -10 -11 -13 -10 -11 -12 -13 -13 -13 -15 -16 -17 -19 -19 -20 -20 -15 -16 -17 -18 -16 -15 -11 -8 -8 -7 -8 -9 -10 -10 -10 -10 -10 -10 -10 -11 -11 -11 -12 -12 -12 -12 -13 -13 -13 -14 -14 -14 -14
1 2 -2 -3 -7 -8 -11 -12 -10 -12 -8 -12 -16 -14 -18 -21 -22 -19 -19 -19 -16 -13 -12 -12 -11 -11 -10 -8 -9 -8 -8 -9 -10 -10 -10 -10 -10 -10 -10 -10 -11 -12 -12 -12 -12 -12 -12 -13 -13 -13 -14 -14 -14 -13
2 -6 -8 -8 -8 -11 -12 -11 -11 -12 -13 -14 -14 -14 -18 -21 -22 -22 -15 -15 -15 -15 -15 -13 -12 -13 -11 -11 -11 -9 -8 -9 -9 -10 -10 -10 -11 -10 -11 -11 -11 -12 -12 -12 -13 -13 -13 -13 -13 -13 -14 -14 -14 -14
-1 -7 -8 -10 -11 -8 -8 -10 -11 -10 -13 -17 -16 -16 -19 -23 -18 -18 -15 -13 -18 -18 -16 -13 -12 -11 -14 -16 -10 -8 -8 -9 -9 -10 -9 -9 -10 -11 -11 -11 -12 -12 -12 -13 -13 -13 -13 -13 -14 -14 -14 -14 -13 -13
-6 -11 -8 -7 -9 -6 -7 -8 -10 -12 -14 -17 -18 -22 -24 -19 -15 -11 -14 -15 -17 -19 -17 -14 -14 -16 -14 -11 -11 -9 -9 -9 -10 -11 -10 -10 -11 -12 -12 -13 -13 -12 -13 -13 -13 -13 -13 -14 -14 -14 -14 -14 -13 -13
-6 -8 -10 -10 -9 -10 -10 -12 -12 -13 -16 -15 -17 -19 -18 -13 -13 -12 -15 -13 -13 -9 -9 -9 -9 -8 -8 -8 -9 -10 -10 -10 -10 -11 -11 -12 -12 -13 -13 -14 -14 -13 -14 -14 -14 -14 -14 -14 -14 -14 -14 -13 -14 -14
-9 -9 -7 -11 -11 -13 -12 -15 -15 -13 -14 -15 -14 -14 -10 -9 -8 -13 -14 -11 -10 -9 -9 -9 -9 -9 -9 -10 -10 -10 -11 -11 -12 -12 -13 -13 -13 -13 -13 -14 -14 -14 -14 -14 -14 -14 -14 -14 -13 -13 -13 -14 -14 -14
-10 -11 -10 -12 -15 -15 -17 -15 -14 -15 -14 -13 -12 -13 -14 -14 -13 -12 -12 -11 -10 -10 -10 -10 -10 -10 -11 -11 -11 -11 -12 -12 -12 -17 -18 -19 -14 -14 -14 -14 -14 -14 -14 -14 -14 -13 -13 -13 -13 -13 -13 -14 -14 -14
-12 -14 -12 -15 -13 -13 -18 -20 -20 -21 -18 -19 -18 -16 -15 -15 -13 -12 -11 -11 -11 -11 -10 -10 -11 -12 -12 -12 -12 -12 -12 -12 -12 -13 -16 -17 -13 -14 -14 -14 -14 -14 -14 -14 -14 -14 -14 -13 -13 -13 -14 -14 -14 -15
-16 -15 -15 -15 -17 -20 -22 -23 -22 -20 -21 -24 -22 -19 -16 -21 -13 -13 -12 -12 -12 -12 -12 -12 -12 -12 -12 -12 -12 -12 -12 -12 -12 -13 -13 -13 -14 -14 -14 -14 -13 -13 -13 -13 -13 -13 -14 -14 -14 -14 -14 -14 -15 -15
-17 -20 -16 -16 -18 -23 -23 -25 -26 -24 -24 -21 -21 -25 -21 -18 -15 -14 -12 -13 -13 -14 -13 -13 -12 -11 -11 -12 -12 -11 -12 -12 -13 -13 -14 -14 -14 -13 -13 -13 -13 -13 -13 -13 -13 -13 -14 -14 -14 -14 -14 -14 -15 -15
-22 -23 -23 -20 -19 -19 -22 -22 -21 -19 -21 -21 -21 -25 -26 -20 -14 -14 -12 -12 -12 -12 -11 -11 -11 -11 -11 -12 -12 -12 -13 -13 -13 -14 -15 -14 -14 -13 -12 -13 -13 -13 -13 -13 -13 -13 -14 -14 -14 -14 -14 -15 -15 -15

GFSWCAN_925_temp_264.txt.gz
Temp
8 8 8 8 9 9 10 10 8 6 7 6 5 5 6 7 7 7 2 3 3 -1 -2 -2 -1 -1 -1 0 1 -1 -1 -1 -1 -0 -0 -0 -1 -1 -2 -3 -2 -1 -1 -2 -3 -3 -3 -5 -4 -5 -6 -6 -6 -7
8 8 7 8 8 9 9 9 6 5 6 5 4 4 5 6 6 6 2 1 2 -1 -2 -3 -3 -2 -2 -1 -1 -3 -1 -2 -2 -1 -4 -3 -2 -5 -3 -1 -5 -3 -3 -2 -2 -1 -4 -5 -5 -5 -7 -7 -7 -8
7 8 7 7 8 8 9 7 5 4 5 5 3 4 5 5 5 5 2 1 0 -0 -1 -1 -2 -2 -1 -1 -2 -1 -2 -3 -3 -5 -3 -3 -2 -3 -2 -2 -3 -5 -7 -4 -4 -4 -5 -5 -6 -6 -7 -7 -7 -8
7 7 8 8 8 9 9 6 5 3 4 2 2 3 4 4 4 5 2 1 1 -0 -1 -2 -3 -3 -3 -2 -2 -2 -3 -5 -5 -4 -4 -3 -2 -3 -3 -4 -4 -5 -7 -6 -5 -4 -5 -6 -6 -7 -8 -8 -8 -9
7 7 7 8 8 8 8 6 4 2 2 1 1 2 2 3 3 3 2 1 2 2 -2 -2 -3 -4 -3 -3 -2 -3 -3 -3 -3 -3 -3 -3 -3 -4 -6 -6 -5 -7 -6 -4 -3 -6 -8 -7 -7 -8 -9 -9 -9 -10
6 7 7 8 8 8 8 5 3 1 1 1 0 1 2 2 2 4 0 1 1 1 -2 -3 -4 -4 -4 -3 -4 -4 -3 -4 -3 -3 -3 -4 -5 -4 -4 -3 -6 -8 -9 -10 -6 -9 -9 -8 -8 -9 -9 -10 -11 -11
6 6 7 7 8 8 6 4 2 1 0 0 -0 -1 0 2 3 -0 -0 0 1 1 -3 -4 -4 -5 -5 -5 -5 -4 -4 -3 -2 -4 -3 -4 -5 -6 -6 -4 -5 -6 -7 -8 -9 -10 -9 -8 -9 -10 -10 -11 -11 -11
6 6 7 7 7 7 5 3 1 0 0 -1 -1 -2 1 2 1 0 -1 0 1 -0 -3 -4 -5 -4 -6 -4 -4 -6 -3 -3 -3 -3 -4 -4 -6 -6 -5 -5 -7 -7 -8 -8 -9 -10 -10 -10 -10 -10 -11 -11 -11 -11
6 6 6 7 7 6 3 2 1 -0 -1 -1 -2 1 2 1 -2 -1 -1 -0 1 -0 -4 -4 -3 -3 -6 -6 -6 -5 -6 -3 -5 -4 -5 -5 -5 -5 -4 -6 -7 -7 -9 -9 -9 -10 -10 -10 -10 -11 -11 -12 -12 -12
6 6 6 6 7 4 2 1 0 -1 -2 -2 1 0 -3 -4 -2 -1 -1 -2 -5 -7 -7 -6 -8 -6 -6 -6 -7 -6 -8 -6 -5 -6 -7 -5 -4 -6 -7 -8 -8 -9 -11 -12 -12 -10 -11 -11 -11 -12 -12 -12 -12 -12
6 6 6 7 5 3 1 0 -1 -1 -2 1 -2 -4 -5 -4 -2 -4 -5 -3 -6 -4 -8 -10 -8 -7 -8 -6 -7 -10 -8 -9 -5 -6 -6 -5 -4 -5 -7 -8 -9 -10 -11 -12 -13 -13 -13 -13 -13 -13 -13 -12 -12 -13
5 6 6 5 3 1 0 -0 -2 -2 -1 -1 -2 -3 -3 -4 -4 -2 -6 -7 -5 -4 -10 -7 -8 -8 -9 -9 -7 -11 -8 -9 -5 -8 -6 -5 -4 -6 -7 -8 -9 -11 -12 -13 -13 -14 -14 -14 -14 -14 -13 -13 -13 -14
5 5 6 3 1 1 -1 -2 -2 -2 -1 -0 -1 -3 -3 -5 -1 -1 -3 -5 -6 -8 -9 -8 -8 -8 -10 -10 -12 -10 -6 -6 -10 -7 -5 -4 -5 -6 -8 -9 -10 -11 -12 -12 -13 -13 -13 -13 -13 -13 -13 -13 -14 -14
5 5 4 2 1 -0 -2 -3 -2 -1 -0 -2 -2 -2 -2 -3 -3 -2 -2 -4 -7 -7 -8 -9 -10 -8 -10 -10 -12 -6 -11 -11 -8 -7 -5 -4 -7 -8 -9 -10 -11 -10 -12 -13 -13 -13 -14 -14 -14 -14 -14 -14 -14 -14
5 3 1 0 -1 -2 -2 -2 -2 -1 -2 -4 -2 -2 -5 -8 -9 -9 -9 -8 -10 -9 -9 -10 -10 -9 -11 -11 -12 -11 -9 -7 -6 -4 -4 -5 -8 -11 -11 -11 -12 -12 -12 -13 -13 -14 -13 -14 -14 -14 -13 -13 -13 -14
3 1 0 -1 -2 -2 -3 -3 -0 -3 -7 -6 -7 -7 -7 -7 -9 -8 -9 -9 -10 -11 -10 -9 -10 -9 -11 -11 -9 -7 -7 -6 -4 -6 -6 -9 -11 -11 -12 -12 -11 -12 -12 -13 -13 -13 -13 -13 -14 -14 -13 -13 -13 -13
1 0 -1 -2 -2 -3 -3 -0 -4 -7 -6 -6 -7 -6 -6 -5 -7 -8 -8 -10 -12 -8 -7 -10 -7 -8 -14 -10 -9 -10 -7 -5 -6 -7 -9 -10 -10 -10 -11 -11 -11 -12 -12 -13 -13 -12 -13 -13 -13 -14 -14 -13 -13 -13
-0 -1 -2 -3 -3 -3 -1 -5 -6 -7 -8 -7 -6 -8 -8 -8 -9 -10 -12 -13 -9 -10 -11 -8 -14 -11 -8 -7 -7 -7 -8 -9 -10 -8 -8 -11 -11 -11 -11 -11 -11 -11 -12 -12 -12 -12 -13 -13 -13 -13 -13 -13 -13 -13
-1 -2 -3 -3 -2 -0 -6 -7 -7 -8 -9 -9 -9 -9 -9 -10 -12 -12 -13 -14 -14 -13 -13 -12 -9 -8 -7 -8 -6 -8 -9 -8 -7 -9 -11 -10 -10 -10 -11 -11 -11 -12 -12 -12 -12 -12 -12 -12 -13 -13 -13 -13 -12 -13
-2 -3 -3 -2 -1 -5 -7 -8 -7 -7 -7 -8 -9 -10 -11 -11 -12 -12 -12 -11 -11 -12 -11 -10 -8 -7 -8 -8 -9 -7 -8 -10 -9 -8 -8 -9 -10 -10 -11 -11 -11 -11 -11 -12 -12 -12 -12 -12 -13 -13 -13 -13 -13 -13
-3 -4 -2 -0 -4 -8 -10 -9 -9 -9 -9 -10 -10 -10 -12 -12 -12 -12 -12 -12 -12 -12 -10 -11 -10 -11 -12 -12 -11 -9 -9 -9 -8 -7 -6 -7 -9 -10 -10 -10 -10 -11 -12 -12 -12 -12 -12 -12 -13 -13 -13 -14 -14 -14
-4 -1 -0 -3 -8 -9 -11 -12 -9 -10 -11 -11 -11 -11 -12 -11 -12 -14 -17 -14 -13 -10 -12 -12 -12 -12 -14 -13 -10 -9 -7 -8 -8 -9 -9 -9 -9 -10 -10 -10 -11 -11 -12 -12 -12 -12 -13 -13 -13 -13 -13 -14 -14 -14
-0 1 -2 -4 -7 -8 -10 -12 -9 -10 -7 -10 -13 -11 -14 -14 -17 -18 -14 -14 -13 -13 -12 -12 -12 -12 -11 -9 -9 -9 -8 -8 -9 -10 -9 -10 -10 -10 -10 -10 -11 -12 -12 -12 -12 -12 -13 -13 -13 -13 -13 -14 -14 -14
1 -6 -7 -7 -8 -10 -11 -10 -10 -10 -10 -10 -10 -11 -15 -16 -19 -16 -11 -11 -12 -16 -15 -14 -13 -13 -13 -12 -11 -9 -8 -8 -9 -9 -10 -10 -11 -10 -10 -11 -11 -12 -12 -12 -13 -13 -13 -13 -13 -13 -14 -14 -14 -14
-1 -6 -6 -9 -12 -8 -8 -9 -9 -8 -9 -12 -12 -14 -15 -19 -14 -14 -11 -10 -13 -13 -14 -15 -14 -12 -9 -10 -11 -9 -8 -8 -10 -11 -9 -10 -10 -11 -11 -12 -12 -12 -12 -13 -14 -14 -13 -13 -14 -14 -14 -14 -13 -13
-5 -10 -8 -8 -8 -6 -6 -7 -8 -9 -11 -13 -15 -20 -20 -14 -13 -9 -10 -11 -13 -14 -15 -13 -12 -13 -13 -11 -10 -10 -8 -9 -10 -11 -10 -10 -10 -11 -12 -13 -13 -13 -13 -13 -13 -14 -14 -14 -14 -14 -14 -14 -13 -13
-7 -9 -10 -10 -8 -9 -9 -10 -11 -10 -11 -11 -15 -18 -15 -13 -10 -9 -12 -13 -12 -11 -9 -8 -9 -9 -8 -9 -10 -10 -9 -10 -10 -10 -11 -11 -12 -12 -13 -13 -14 -14 -14 -14 -14 -14 -14 -14 -14 -14 -14 -14 -14 -14
-9 -9 -6 -10 -10 -12 -10 -11 -11 -10 -12 -14 -13 -14 -9 -7 -6 -11 -13 -12 -11 -10 -10 -11 -10 -9 -8 -9 -9 -10 -11 -11 -11 -12 -12 -12 -13 -13 -13 -13 -14 -14 -14 -14 -14 -14 -14 -14 -14 -14 -14 -14 -14 -14
-9 -10 -10 -12 -14 -13 -15 -12 -12 -14 -14 -12 -10 -10 -11 -13 -15 -14 -13 -12 -11 -11 -11 -11 -11 -10 -10 -10 -11 -11 -11 -11 -12 -17 -16 -14 -14 -13 -14 -14 -14 -14 -14 -14 -14 -14 -13 -13 -13 -13 -14 -14 -14 -14
-13 -14 -12 -14 -12 -14 -18 -19 -18 -19 -18 -17 -17 -15 -15 -15 -14 -14 -13 -12 -13 -12 -10 -10 -10 -11 -11 -12 -12 -12 -12 -12 -12 -12 -15 -15 -13 -13 -14 -14 -14 -14 -14 -14 -14 -14 -14 -13 -13 -14 -14 -14 -14 -15
-15 -14 -15 -15 -17 -19 -21 -22 -22 -20 -21 -20 -22 -17 -15 -19 -14 -14 -13 -13 -12 -12 -11 -12 -12 -12 -12 -12 -12 -12 -12 -11 -12 -12 -13 -13 -13 -13 -14 -14 -14 -14 -13 -14 -14 -14 -14 -14 -14 -14 -14 -14 -15 -15
-16 -18 -14 -13 -16 -21 -23 -21 -21 -19 -20 -18 -18 -22 -19 -17 -13 -15 -13 -14 -14 -13 -13 -12 -12 -11 -11 -11 -11 -11 -11 -11 -12 -12 -13 -13 -13 -13 -13 -13 -13 -13 -13 -13 -13 -14 -14 -14 -14 -14 -14 -15 -15 -15
-21 -21 -20 -18 -17 -17 -20 -18 -18 -17 -19 -20 -20 -24 -25 -19 -12 -14 -13 -13 -13 -12 -12 -11 -11 -11 -11 -11 -11 -12 -12 -12 -13 -13 -14 -14 -14 -13 -12 -13 -13 -13 -13 -13 -13 -14 -14 -14 -14 -14 -14 -15 -15 -15

GFSWCAN_925_temp_267.txt.gz
Temp
7 7 7 7 7 8 8 9 9 9 8 6 7 6 6 7 7 8 3 4 4 2 0 0 1 2 1 4 3 1 1 0 1 1 2 3 2 1 -0 1 1 1 1 1 0 -1 -1 -2 -3 -4 -5 -5 -5 -5
7 7 7 7 7 7 7 8 8 7 6 5 4 3 5 6 6 7 2 1 3 0 -1 -2 -3 -3 -2 -1 1 -0 1 1 2 2 0 1 0 -1 -0 1 -1 -1 -0 -1 -0 -0 -2 -2 -3 -3 -5 -6 -5 -6
6 7 7 7 7 7 7 8 8 6 5 4 3 2 3 4 5 6 2 2 0 0 -1 1 -1 -3 -1 -1 -1 1 0 -0 -1 -3 -0 -0 -1 -0 -0 1 -0 -2 -4 -3 -3 -1 -2 -3 -3 -4 -5 -6 -6 -6
5 6 7 7 7 7 7 7 8 7 4 4 2 1 1 3 4 5 4 2 1 -0 -1 -2 -2 -3 -3 -2 -1 -1 -2 -3 -3 -1 -1 -1 -1 -1 0 -2 -2 -3 -4 -3 -2 -1 -2 -4 -4 -5 -6 -6 -6 -7
5 5 6 7 7 7 7 7 8 6 3 2 1 1 1 2 3 3 3 2 2 2 -1 -2 -2 -4 -3 -2 -2 -2 -2 -1 -1 -2 -2 -1 -1 -2 -3 -3 -2 -3 -3 -3 -2 -4 -6 -5 -5 -6 -7 -7 -8 -8
5 5 5 6 7 7 8 7 7 5 3 2 1 0 1 2 2 3 3 1 2 0 -2 -2 -3 -3 -3 -2 -2 -2 -2 -1 -1 -1 -1 -2 -3 -3 -3 -1 -4 -4 -6 -7 -4 -6 -6 -6 -6 -7 -8 -8 -9 -9
5 5 5 6 6 7 7 7 5 3 2 1 -0 -1 -1 0 2 1 1 -0 1 1 -2 -4 -3 -4 -4 -3 -3 -2 -2 -1 -1 -1 -2 -1 -3 -3 -3 -2 -3 -4 -4 -5 -5 -8 -7 -6 -7 -8 -9 -9 -10 -10
5 5 5 6 6 6 7 7 4 2 1 -0 -1 -1 -1 1 1 -0 -0 0 1 -0 -1 -2 -4 -3 -5 -2 -2 -4 -2 -1 -2 -2 -3 -2 -4 -4 -4 -2 -4 -4 -5 -5 -6 -7 -8 -8 -8 -8 -9 -9 -10 -10
5 5 6 6 6 6 7 4 2 1 -0 -1 -2 0 0 2 -0 -2 -0 0 1 -0 -2 -2 -2 -2 -4 -4 -3 -3 -3 -2 -3 -2 -3 -3 -2 -4 -2 -4 -4 -4 -7 -7 -7 -7 -8 -8 -8 -9 -10 -10 -11 -11
5 5 5 6 6 6 5 2 1 -0 -1 -2 -2 -2 -2 -4 -1 -0 -1 -1 -3 -5 -4 -4 -4 -5 -4 -4 -5 -4 -5 -3 -3 -4 -5 -4 -3 -3 -4 -4 -5 -6 -7 -8 -10 -8 -8 -9 -9 -10 -11 -11 -11 -11
5 5 5 5 5 5 2 1 -0 -1 -3 -2 -3 -3 -5 -4 -2 -3 -2 -0 -3 -3 -5 -7 -5 -5 -6 -3 -4 -7 -4 -5 -4 -4 -5 -3 -3 -2 -4 -5 -6 -7 -8 -10 -10 -11 -11 -12 -12 -12 -12 -11 -11 -11
5 5 5 5 5 3 1 0 -1 -2 -2 -2 -3 -4 -4 -4 -2 -0 -1 -5 -4 -1 -8 -5 -6 -5 -7 -6 -5 -8 -5 -6 -3 -6 -5 -3 -1 -3 -5 -5 -6 -8 -9 -10 -11 -12 -12 -13 -13 -12 -12 -11 -12 -12
5 5 5 5 3 2 0 -1 -2 -3 -3 -3 -3 -4 -3 -4 -1 -0 -2 -3 -4 -6 -7 -7 -7 -7 -8 -7 -8 -6 -5 -4 -7 -6 -4 -2 -3 -4 -5 -6 -7 -8 -9 -10 -11 -11 -12 -12 -12 -12 -12 -12 -13 -14
5 5 5 4 2 0 -0 -2 -2 -2 -2 -2 -2 -3 -2 -2 -1 0 1 -2 -5 -5 -5 -6 -7 -5 -7 -7 -8 -5 -8 -8 -5 -5 -4 -1 -4 -5 -6 -7 -8 -8 -9 -11 -11 -12 -12 -12 -13 -13 -13 -13 -14 -14
5 4 5 3 1 -0 -2 -2 -3 -3 -4 -3 -1 -1 -4 -6 -7 -7 -7 -7 -6 -6 -7 -7 -7 -6 -8 -8 -8 -8 -8 -5 -4 -2 -1 -2 -5 -8 -8 -8 -9 -9 -10 -11 -12 -13 -13 -13 -14 -13 -13 -13 -13 -14
4 4 3 1 -1 -2 -2 -3 -4 -5 -6 -5 -5 -5 -6 -5 -7 -7 -7 -8 -7 -7 -6 -5 -7 -6 -7 -7 -7 -5 -4 -4 -2 -3 -3 -5 -8 -9 -10 -10 -10 -11 -11 -12 -12 -13 -13 -13 -14 -13 -13 -13 -13 -13
3 1 0 -1 -2 -3 -3 -3 -5 -6 -6 -5 -6 -5 -5 -4 -5 -6 -6 -7 -8 -5 -5 -5 -4 -5 -10 -7 -5 -5 -4 -2 -3 -4 -5 -6 -7 -8 -10 -10 -11 -11 -12 -12 -12 -13 -13 -13 -13 -14 -13 -12 -13 -13
0 -1 -1 -3 -3 -3 -4 -6 -6 -6 -6 -6 -5 -7 -7 -6 -7 -8 -10 -9 -7 -7 -6 -5 -10 -8 -5 -4 -4 -3 -5 -5 -5 -4 -5 -7 -9 -10 -10 -10 -10 -11 -12 -12 -12 -12 -13 -13 -13 -12 -12 -12 -12 -11
-1 -2 -3 -3 -1 -3 -5 -7 -6 -7 -7 -8 -8 -8 -8 -9 -10 -10 -10 -12 -11 -10 -10 -8 -6 -5 -4 -4 -2 -4 -5 -5 -5 -6 -7 -9 -9 -10 -10 -11 -11 -11 -11 -12 -12 -12 -11 -12 -12 -12 -12 -12 -12 -11
-2 -3 -3 -2 -1 -5 -6 -7 -6 -6 -6 -8 -8 -8 -9 -9 -9 -9 -9 -9 -8 -8 -7 -7 -4 -2 -3 -4 -5 -4 -5 -5 -6 -6 -5 -7 -9 -10 -11 -10 -10 -10 -10 -11 -11 -11 -11 -11 -11 -12 -12 -12 -11 -12
-3 -3 -3 -2 -5 -8 -8 -7 -8 -7 -8 -8 -9 -9 -10 -9 -9 -9 -9 -10 -8 -8 -6 -6 -5 -6 -9 -10 -8 -7 -7 -7 -5 -3 -3 -5 -8 -9 -9 -10 -10 -10 -10 -10 -10 -10 -10 -11 -11 -12 -13 -13 -13 -13
-3 -3 -2 -5 -8 -9 -9 -11 -8 -9 -9 -9 -9 -8 -8 -8 -9 -10 -13 -10 -8 -6 -7 -7 -7 -8 -11 -11 -10 -9 -7 -7 -7 -7 -7 -7 -7 -8 -9 -9 -10 -10 -10 -10 -11 -11 -11 -12 -12 -13 -13 -13 -13 -14
-2 -0 -3 -6 -7 -7 -9 -11 -7 -7 -6 -9 -10 -8 -10 -10 -13 -16 -11 -9 -8 -8 -9 -10 -11 -11 -8 -9 -9 -9 -9 -8 -8 -8 -8 -8 -8 -9 -10 -10 -10 -10 -10 -10 -12 -12 -12 -12 -12 -12 -13 -14 -14 -14
-1 -6 -6 -6 -6 -9 -9 -8 -8 -8 -8 -7 -6 -9 -11 -12 -15 -12 -8 -7 -7 -13 -12 -12 -11 -10 -11 -11 -9 -8 -9 -8 -9 -9 -9 -9 -9 -9 -10 -10 -11 -11 -12 -12 -13 -13 -13 -13 -13 -13 -14 -14 -14 -14
-2 -6 -6 -7 -9 -7 -7 -7 -7 -5 -7 -7 -8 -10 -13 -16 -10 -10 -8 -5 -9 -10 -10 -12 -11 -8 -6 -6 -8 -8 -8 -8 -9 -9 -9 -10 -10 -11 -11 -11 -12 -12 -12 -13 -13 -13 -13 -13 -14 -14 -14 -14 -13 -13
-4 -8 -5 -5 -7 -4 -5 -5 -6 -6 -8 -9 -10 -16 -16 -11 -9 -6 -6 -7 -9 -9 -10 -11 -10 -9 -9 -9 -8 -9 -8 -9 -9 -10 -10 -10 -10 -11 -11 -11 -12 -13 -13 -13 -14 -13 -13 -14 -14 -14 -14 -14 -13 -13
-4 -7 -8 -8 -7 -7 -7 -8 -8 -6 -7 -8 -12 -14 -11 -8 -6 -5 -8 -10 -9 -11 -9 -9 -8 -8 -7 -9 -9 -9 -9 -10 -10 -10 -10 -11 -11 -11 -12 -13 -13 -13 -14 -14 -14 -14 -14 -14 -14 -14 -14 -14 -14 -14
-7 -7 -6 -8 -8 -8 -6 -6 -6 -6 -6 -10 -10 -10 -8 -5 -4 -8 -10 -13 -12 -12 -10 -9 -9 -8 -8 -9 -9 -10 -11 -11 -11 -11 -11 -12 -12 -12 -13 -13 -13 -14 -14 -14 -14 -14 -14 -14 -14 -14 -14 -14 -14 -14
-8 -8 -7 -10 -10 -10 -11 -8 -7 -11 -12 -9 -6 -7 -7 -10 -13 -13 -14 -14 -12 -12 -12 -12 -12 -10 -10 -10 -11 -11 -11 -11 -12 -15 -14 -11 -13 -13 -13 -13 -14 -14 -14 -14 -14 -14 -13 -13 -13 -13 -14 -14 -14 -14
-9 -11 -9 -10 -9 -9 -14 -17 -15 -16 -16 -15 -15 -13 -12 -13 -15 -15 -14 -13 -13 -12 -11 -10 -10 -10 -12 -12 -12 -12 -12 -11 -11 -11 -12 -12 -12 -12 -13 -13 -14 -14 -14 -14 -14 -14 -14 -13 -13 -14 -14 -14 -14 -15
-12 -10 -11 -11 -13 -16 -18 -20 -20 -18 -17 -16 -17 -13 -11 -14 -15 -14 -14 -13 -12 -12 -12 -12 -12 -12 -12 -12 -12 -12 -13 -11 -11 -11 -12 -12 -12 -13 -13 -13 -14 -14 -14 -14 -14 -14 -14 -14 -14 -14 -14 -15 -15 -15
-12 -12 -10 -10 -13 -18 -19 -17 -15 -13 -14 -12 -12 -15 -13 -12 -10 -14 -13 -13 -13 -14 -12 -12 -11 -11 -11 -11 -11 -10 -10 -9 -10 -11 -12 -12 -13 -13 -13 -13 -13 -13 -13 -14 -14 -14 -14 -14 -15 -15 -15 -15 -15 -15
-16 -15 -15 -13 -13 -13 -16 -14 -12 -11 -12 -12 -13 -17 -17 -15 -9 -13 -13 -13 -13 -12 -12 -11 -11 -11 -11 -11 -11 -11 -11 -11 -11 -12 -13 -13 -13 -13 -13 -13 -13 -13 -13 -14 -14 -14 -14 -14 -14 -14 -15 -15 -15 -15

GFSWCAN_925_temp_273.txt.gz
Temp
4 4 5 5 5 6 6 7 7 7 8 8 8 7 7 5 3 2 -0 1 3 -0 -2 -1 -1 2 2 1 0 -1 -1 -1 -1 -1 -0 -0 -3 -3 -4 -2 -4 -4 -5 -4 -5 -4 -5 -5 -5 -6 -8 -7 -7 -9
4 4 4 5 5 5 6 6 7 7 7 7 7 7 6 4 3 2 -1 -0 1 -1 -4 -3 -2 -2 -2 -1 -0 -2 -1 -1 -1 -2 -3 -4 -3 -6 -4 -4 -2 -4 -4 -6 -6 -4 -4 -5 -5 -8 -10 -11 -10 -11
3 3 4 4 5 5 5 6 6 7 7 7 7 7 4 2 1 2 -0 -1 1 -3 -4 -4 -3 -2 -1 -1 -1 -1 -2 -2 -2 -5 -3 -4 -3 -4 -5 -4 -6 -4 -7 -8 -6 -4 -5 -5 -5 -5 -6 -9 -8 -10
3 3 3 4 5 5 5 5 6 6 7 7 6 6 3 1 -0 1 -0 -1 0 -2 -2 -3 -3 -2 -2 -1 -0 0 -1 -2 -3 -3 -4 -5 -3 -4 -4 -5 -6 -7 -7 -8 -6 -5 -6 -6 -7 -7 -7 -8 -8 -9
3 3 3 4 5 5 5 5 6 6 7 6 6 4 2 -0 -1 -1 -0 -0 -0 -0 -2 -4 -3 -3 -2 -2 -1 -1 -1 -3 -3 -4 -5 -5 -3 -5 -7 -7 -9 -8 -8 -8 -7 -6 -11 -10 -8 -7 -11 -10 -10 -11
2 2 3 4 4 5 5 5 5 6 6 6 4 2 0 -1 -0 -0 -1 -1 -1 -2 -4 -4 -3 -3 -2 -2 -2 -2 -2 -3 -3 -4 -5 -5 -4 -7 -8 -7 -7 -9 -11 -11 -10 -12 -10 -9 -9 -9 -11 -10 -9 -10
2 2 3 4 4 5 5 5 5 6 6 5 2 1 -1 -1 -0 -1 -0 -2 -1 -1 -4 -5 -5 -4 -3 -3 -3 -3 -2 -3 -3 -5 -4 -5 -6 -9 -10 -8 -5 -6 -7 -8 -12 -13 -10 -8 -11 -9 -9 -9 -9 -10
2 2 3 3 4 5 5 5 5 5 5 3 1 -1 -1 -1 -1 -3 -3 -3 -2 -2 -2 -4 -5 -4 -4 -3 -4 -4 -4 -4 -4 -4 -5 -6 -7 -9 -9 -6 -6 -7 -7 -7 -9 -10 -10 -10 -9 -10 -9 -10 -12 -12
1 2 2 3 4 5 5 5 5 5 2 -1 -1 -2 -1 -2 -3 -4 -2 -1 0 -1 -3 -5 -5 -4 -5 -4 -4 -4 -4 -6 -4 -5 -5 -5 -6 -7 -7 -8 -7 -9 -9 -11 -8 -8 -9 -10 -10 -10 -11 -13 -14 -13
1 2 2 4 4 4 5 5 4 1 -1 -2 -1 -2 -3 -4 -3 -3 -3 -3 -3 -5 -5 -4 -5 -5 -4 -5 -5 -7 -8 -5 -8 -7 -7 -7 -7 -6 -7 -8 -7 -10 -11 -12 -13 -12 -12 -12 -11 -14 -15 -13 -13 -13
1 2 2 3 4 4 5 4 1 -1 -1 -1 -3 -4 -4 -4 -3 -3 -4 -3 -4 -5 -8 -6 -6 -6 -5 -4 -5 -7 -7 -8 -8 -6 -8 -8 -8 -6 -7 -8 -9 -9 -9 -10 -10 -11 -11 -13 -17 -18 -15 -13 -13 -13
1 2 3 3 4 4 3 1 -1 -0 -1 -2 -4 -4 -4 -4 -4 -3 -3 -5 -6 -4 -8 -6 -5 -6 -7 -6 -8 -9 -8 -9 -8 -8 -10 -9 -6 -6 -8 -9 -10 -9 -9 -10 -10 -11 -11 -12 -12 -13 -13 -13 -13 -12
1 2 2 3 4 3 2 0 -0 -2 -1 -2 -4 -4 -3 -4 -3 -3 -4 -6 -5 -6 -7 -7 -7 -7 -8 -7 -9 -8 -9 -8 -8 -11 -8 -7 -6 -7 -10 -10 -11 -9 -9 -10 -11 -11 -11 -12 -12 -12 -12 -12 -13 -13
1 2 2 3 3 3 1 -1 -2 -0 0 -2 -3 -4 -2 -4 -4 -3 -2 -3 -5 -6 -6 -6 -7 -6 -7 -8 -9 -7 -9 -10 -11 -10 -7 -9 -8 -9 -11 -11 -12 -12 -11 -11 -11 -11 -11 -12 -12 -12 -12 -13 -13 -13
1 2 2 3 3 2 -0 -2 -1 -1 -2 -2 -2 -3 -5 -6 -7 -7 -6 -6 -6 -5 -6 -7 -7 -7 -8 -10 -9 -10 -11 -10 -7 -7 -7 -10 -11 -11 -12 -13 -13 -14 -12 -12 -11 -11 -11 -12 -12 -12 -12 -13 -13 -13
1 2 3 3 2 -0 -1 -2 -1 -3 -5 -4 -6 -7 -6 -6 -6 -6 -6 -6 -6 -6 -7 -7 -7 -8 -10 -9 -9 -8 -8 -7 -6 -8 -10 -13 -12 -13 -14 -14 -11 -10 -10 -10 -10 -11 -11 -12 -12 -13 -13 -12 -12 -13
1 3 3 2 -1 -2 -2 -1 -4 -6 -5 -6 -8 -6 -5 -6 -6 -7 -6 -7 -7 -6 -5 -6 -5 -6 -9 -9 -8 -8 -8 -7 -9 -11 -12 -13 -12 -13 -14 -11 -11 -11 -11 -11 -11 -11 -12 -12 -13 -14 -14 -11 -12 -12
2 2 -0 -1 -2 -2 -4 -5 -6 -6 -8 -9 -7 -7 -7 -7 -7 -8 -8 -8 -6 -6 -6 -6 -10 -10 -7 -6 -7 -7 -10 -12 -13 -11 -12 -17 -11 -10 -10 -11 -10 -10 -10 -11 -11 -11 -12 -13 -14 -14 -12 -12 -12 -12
1 -1 -2 -2 -1 -2 -6 -7 -6 -8 -9 -8 -8 -8 -8 -9 -9 -9 -10 -10 -10 -9 -9 -9 -9 -8 -7 -8 -8 -12 -12 -11 -11 -13 -16 -11 -9 -9 -10 -10 -10 -10 -11 -11 -11 -12 -11 -12 -12 -12 -12 -12 -12 -12
-1 -2 -2 -2 -1 -5 -6 -7 -6 -7 -7 -8 -8 -8 -9 -9 -9 -9 -8 -8 -8 -8 -9 -9 -7 -8 -9 -11 -12 -12 -12 -12 -10 -12 -14 -14 -10 -10 -10 -10 -10 -10 -11 -11 -11 -11 -12 -12 -12 -12 -12 -12 -12 -12
-3 -3 -2 -1 -6 -8 -8 -8 -8 -7 -8 -9 -9 -8 -9 -8 -8 -8 -9 -9 -9 -9 -9 -9 -10 -13 -14 -12 -11 -8 -9 -8 -11 -11 -10 -11 -11 -10 -9 -10 -10 -10 -11 -11 -12 -11 -10 -11 -11 -11 -11 -12 -12 -13
-3 -1 -4 -5 -8 -9 -9 -10 -8 -9 -9 -9 -8 -8 -9 -8 -9 -9 -11 -10 -10 -9 -9 -11 -13 -14 -14 -13 -9 -7 -7 -6 -5 -5 -6 -7 -11 -11 -11 -10 -10 -11 -10 -10 -10 -11 -11 -11 -11 -12 -12 -12 -13 -13
-1 -1 -5 -6 -7 -8 -10 -10 -8 -8 -8 -9 -9 -8 -9 -9 -12 -13 -11 -9 -9 -10 -10 -11 -11 -10 -10 -10 -9 -8 -6 -6 -8 -8 -7 -8 -8 -8 -8 -9 -9 -10 -11 -10 -10 -10 -11 -12 -12 -12 -12 -12 -13 -13
-1 -6 -6 -7 -8 -10 -11 -9 -9 -8 -9 -8 -7 -9 -10 -11 -14 -14 -9 -10 -10 -12 -12 -13 -12 -13 -12 -11 -13 -10 -8 -7 -8 -8 -8 -8 -10 -10 -9 -9 -10 -10 -10 -11 -11 -12 -12 -13 -12 -13 -13 -13 -13 -14
-2 -7 -8 -12 -11 -8 -7 -7 -7 -6 -7 -7 -8 -11 -12 -14 -12 -11 -9 -10 -11 -12 -12 -13 -12 -13 -11 -15 -13 -9 -8 -7 -9 -11 -8 -8 -9 -11 -11 -11 -11 -11 -11 -12 -12 -13 -13 -13 -14 -14 -14 -14 -14 -13
-8 -10 -7 -10 -10 -7 -7 -9 -8 -8 -8 -8 -10 -14 -15 -12 -11 -8 -9 -11 -11 -14 -12 -12 -11 -12 -13 -10 -12 -11 -9 -8 -8 -8 -9 -9 -9 -9 -11 -13 -13 -12 -12 -12 -13 -13 -13 -14 -14 -14 -14 -14 -13 -14
-9 -10 -11 -9 -8 -7 -8 -8 -8 -8 -9 -9 -12 -14 -12 -10 -8 -7 -13 -14 -13 -12 -10 -10 -9 -9 -10 -11 -9 -8 -8 -9 -8 -8 -8 -10 -11 -10 -10 -11 -12 -11 -12 -13 -13 -13 -14 -14 -14 -14 -14 -14 -14 -14
-10 -9 -7 -8 -8 -9 -8 -9 -8 -7 -8 -11 -11 -12 -10 -7 -5 -12 -15 -15 -14 -13 -11 -10 -8 -7 -7 -8 -8 -9 -10 -10 -10 -11 -11 -12 -11 -11 -11 -11 -12 -13 -13 -14 -14 -14 -14 -14 -14 -14 -14 -14 -14 -14
-8 -8 -8 -10 -11 -13 -13 -11 -10 -12 -13 -11 -10 -9 -10 -12 -15 -16 -15 -15 -14 -12 -12 -12 -12 -9 -10 -10 -10 -10 -10 -10 -11 -17 -17 -17 -14 -12 -12 -12 -13 -13 -13 -14 -14 -14 -13 -13 -13 -13 -13 -14 -14 -14
-11 -13 -12 -14 -12 -11 -15 -17 -16 -17 -16 -16 -15 -14 -13 -14 -15 -16 -15 -15 -14 -13 -12 -12 -12 -10 -14 -13 -13 -13 -12 -11 -11 -9 -16 -18 -11 -10 -11 -12 -13 -13 -14 -14 -14 -14 -14 -13 -13 -13 -14 -14 -14 -15
-13 -14 -15 -15 -16 -17 -19 -20 -19 -18 -18 -18 -18 -15 -13 -16 -15 -15 -15 -14 -13 -12 -12 -13 -12 -11 -11 -12 -12 -14 -14 -12 -11 -10 -9 -9 -9 -10 -11 -12 -13 -13 -14 -14 -14 -14 -14 -14 -14 -14 -14 -14 -15 -15
-15 -15 -12 -13 -15 -20 -22 -21 -19 -17 -17 -15 -15 -17 -16 -15 -12 -17 -14 -14 -13 -13 -12 -11 -11 -11 -10 -10 -10 -10 -10 -9 -10 -10 -10 -10 -11 -12 -12 -13 -13 -13 -14 -14 -14 -14 -14 -14 -15 -15 -15 -15 -15 -15
-19 -19 -19 -18 -17 -16 -18 -17 -15 -14 -14 -14 -15 -18 -19 -16 -10 -15 -15 -14 -12 -11 -11 -10 -11 -10 -10 -11 -11 -10 -9 -9 -10 -11 -11 -12 -12 -12 -13 -13 -13 -14 -14 -14 -14 -14 -14 -15 -15 -15 -15 -15 -15 -15